Regional Weather Roundup
Issued by NWS

Home | Current Version | Previous Version | Graphics & Text | Print | Product List | Glossary On
Versions: 1 2 3 4 5 6 7 8 9 10 11 12 13 14 15 16 17 18 19 20 21 22 23 24 25 26 27
000
ASUS45 KSLC 250210
RWRUT

UTAH REGIONAL WEATHER ROUNDUP
NATIONAL WEATHER SERVICE SALT LAKE CITY UT
800 PM MDT THU MAY 24 2018

UTZ001>011-023>025-250300-

NORTHERN UTAH

CITY           SKY/WX    TMP DP  RH WIND       PRES   REMARKS
BRIGHAM CITY   CLEAR     80  29  15 CALM      30.02S
HILL AFB       CLEAR     79  39  24 NW7       30.03F
LOGAN          CLEAR     78  43  28 CALM      30.02F
OGDEN          CLEAR     79  37  22 N7        30.01S
SALT LAKE CITY CLEAR     82  42  24 N10       29.98S
TOOELE VALLEY  CLEAR     72  52  49 N7        30.00S
WENDOVER       CLEAR     83  31  15 E7        29.97F
HEBER CITY       N/A     72  34  25 CALM      30.07S
WEST JORDAN    CLEAR     77  44  30 NW6       30.01F

$$

UTZ011>015-024>027-250300-

CENTRAL/NORTHEAST UTAH

CITY           SKY/WX    TMP DP  RH WIND       PRES   REMARKS
PROVO AIRPORT  CLEAR     78  50  37 CALM      30.01S
MOAB/CANYONLAN CLEAR     84  23  10 N8        29.98F
DELTA          CLEAR     79  25  13 N3        30.00F
PRICE          PTCLDY    78  25  14 S9        30.08S
ROOSEVELT      CLEAR     81  27  13 CALM      30.06R
VERNAL         CLEAR     79  29  16 CALM      30.05S

$$

UTZ013>016-019>022-027-250300-

SOUTHERN UTAH

CITY           SKY/WX    TMP DP  RH WIND       PRES   REMARKS
BRYCE CANYON   CLEAR     70  19  14 S7        30.22S
CEDAR CITY     CLEAR     76  17  11 SW9       30.06S
MILFORD        CLEAR     81  16   9 SW15      30.00R
ST GEORGE      CLEAR     88  27  11 W14       29.91R
HANKSVILLE     CLEAR     86  19   8 SE10      30.00S
BLANDING         N/A     76  19  12 S3        30.19S

$$

REGIONAL REPORTS     COLORADO/ARIZONA

CITY           SKY/WX    TMP DP  RH WIND       PRES   REMARKS
CRAIG, CO      CLEAR     68  38  33 W5        30.14S
GRAND JUNCTION CLEAR     82  22  11 NW9       30.03R
RIFLE, CO      CLEAR     78  22  12 W7        30.08R
MONTROSE, CO   NOT AVBL
CORTEZ, CO     CLEAR     77  20  12 NW8       30.13R
COLORADO CITY    N/A     81  25  12 W14       30.07R
PAGE, AZ       CLEAR     87  18   8 NE8       29.97S
GRAND CANYON   CLEAR     74  19  12 SW16      30.19R
KINGMAN, AZ    CLEAR     83  17   8 SW18      29.99S
FLAGSTAFF, AZ  CLEAR     67  23  19 SW13G20   30.24R

$$

REGIONAL REPORTS    NEVADA/IDAHO/WYOMING

CITY           SKY/WX    TMP DP  RH WIND       PRES   REMARKS
LAS VEGAS, NV  PTCLDY    90  26  10 SE9G21    29.86R
ELY, NY        CLEAR     73  20  13 S12       30.08S
ELKO, NV       CLEAR     79  36  21 S7        29.98S
POCATELLO, ID  PTCLDY    72  47  40 SW13      30.06R
BURLEY, ID     MOCLDY    68  51  54 W6        30.02F
FORT BRIDGER,    N/A     71  32  23 NW8       30.22S
EVANSTON, WY   CLEAR     67  38  34 NW8       30.19S
ROCK SPRINGS,  PTCLDY    67  38  34 W8        30.18S

$$




USA.gov is the U.S. government's official web portal to all federal, state and local government web resources and services.